This is the latest recevied weather packets stored in our database for station/object SP1BMW-13. If no packets are shown the sender has not sent any weather packets the latest 10 day(s).
| Time | Temp. | Humidity | Pressure | Rain* | Wind** | Luminosity | Snow |
|---|---|---|---|---|---|---|---|
| 1778155134 | 12.78° C | 54% | 1014.1 hPa | 0 mm | 0.89 m/s, 60° | 422 W/m² | - |
| 1778155074 | 12.78° C | 55% | 1014 hPa | 0 mm | 0.89 m/s, 20° | 362 W/m² | - |
| 1778155013 | 12.78° C | 53% | 1014 hPa | 0 mm | 0.89 m/s, 333° | 378 W/m² | - |
| 1778154954 | 13.33° C | 53% | 1014.2 hPa | 0 mm | 0.89 m/s, 53° | 363 W/m² | - |
| 1778154894 | 13.33° C | 52% | 1014.1 hPa | 0 mm | 1.79 m/s, 43° | 375 W/m² | - |
| 1778154834 | 13.33° C | 53% | 1014 hPa | 0 mm | 0.89 m/s, 29° | 359 W/m² | - |
| 1778154774 | 13.33° C | 52% | 1014.1 hPa | 0 mm | 1.79 m/s, 39° | 365 W/m² | - |
| 1778154713 | 13.33° C | 52% | 1014 hPa | 0 mm | 0.89 m/s, 96° | 371 W/m² | - |
| 1778154654 | 13.33° C | 54% | 1014.1 hPa | 0 mm | 0.45 m/s, 59° | 439 W/m² | - |
| 1778154594 | 13.33° C | 54% | 1014 hPa | 0 mm | 0.45 m/s, 48° | 494 W/m² | - |
| 1778154533 | 13.33° C | 54% | 1014.1 hPa | 0 mm | 0.89 m/s, 202° | 523 W/m² | - |
| 1778154474 | 13.33° C | 58% | 1014.1 hPa | 0 mm | 0.89 m/s, 294° | 412 W/m² | - |
| 1778154413 | 13.33° C | 55% | 1014 hPa | 0 mm | 0.45 m/s, 98° | 590 W/m² | - |
| 1778154355 | 12.78° C | 54% | 1014 hPa | 0 mm | 0.89 m/s, 49° | 627 W/m² | - |
| 1778154294 | 12.78° C | 57% | 1014 hPa | 0 mm | 0.89 m/s, 41° | 639 W/m² | - |
| 1778154233 | 12.78° C | 54% | 1014 hPa | 0 mm | 0.89 m/s, 104° | 581 W/m² | - |
| 1778154174 | 12.78° C | 59% | 1014.1 hPa | 0 mm | 0.45 m/s, 95° | 637 W/m² | - |
| 1778154113 | 12.78° C | 56% | 1014 hPa | 0 mm | 0.89 m/s, 34° | 587 W/m² | - |
| 1778154053 | 12.78° C | 58% | 1014.2 hPa | 0 mm | 2.24 m/s, 42° | 585 W/m² | - |
| 1778153993 | 12.78° C | 57% | 1014.1 hPa | 0 mm | 2.24 m/s, 44° | 601 W/m² | - |
| 1778153933 | 12.22° C | 56% | 1014 hPa | 0 mm | 2.68 m/s, 343° | 536 W/m² | - |
| 1778153874 | 12.22° C | 57% | 1014 hPa | 0 mm | 1.34 m/s, 24° | 536 W/m² | - |
| 1778153814 | 12.22° C | 56% | 1014 hPa | 0 mm | 0.89 m/s, 12° | 467 W/m² | - |
| 1778153754 | 12.22° C | 56% | 1014 hPa | 0 mm | 0.89 m/s, 288° | 414 W/m² | - |
| 1778153693 | 12.22° C | 58% | 1014 hPa | 0 mm | 0.89 m/s, 18° | 355 W/m² | - |
* Rain latest hour (hover to see other rain measurements)
** Current wind speed in m/s (hover to see current wind gust speed)